TROJ34 YAMB-YAMB

Flight info

Callsign TROJ34
Flight time 1h 28m
Altitude 6000
Route YBWW DCT YBOK DCT YTWB
Aircraft C130/M-SDE2E3FGRY/H

Departure

Time 2026-04-25 07:26
Airport RAAF Base Amberley (YAMB)

Arrival

Time 2026-04-25 08:54
Airport RAAF Base Amberley (YAMB)
Time Latitude Longitude Altitude Speed Heading
2026-04-25 06:56 -27.63682 152.70648 94 ft 0 kts 166°
2026-04-25 07:16 -27.63682 152.70650 94 ft 0 kts 151°
2026-04-25 07:17 -27.63678 152.70672 101 ft 7 kts 78°
2026-04-25 07:17 -27.63669 152.70704 95 ft 3 kts 72°
2026-04-25 07:17 -27.63662 152.70729 94 ft 6 kts 71°
2026-04-25 07:18 -27.63618 152.70838 95 ft 19 kts 62°
2026-04-25 07:18 -27.63547 152.70906 96 ft 13 kts
2026-04-25 07:18 -27.63451 152.70872 93 ft 16 kts 339°
2026-04-25 07:18 -27.63299 152.70808 95 ft 30 kts 337°
2026-04-25 07:19 -27.63110 152.70723 94 ft 33 kts 338°
2026-04-25 07:19 -27.62868 152.70613 95 ft 32 kts 333°
2026-04-25 07:19 -27.62694 152.70536 92 ft 24 kts 342°
2026-04-25 07:19 -27.62532 152.70468 92 ft 25 kts 336°
2026-04-25 07:20 -27.62364 152.70396 94 ft 27 kts 338°
2026-04-25 07:20 -27.62209 152.70332 93 ft 0 kts 331°
2026-04-25 07:23 -27.62208 152.70329 93 ft 3 kts 314°
2026-04-25 07:23 -27.62202 152.70334 91 ft 1 kts 36°
2026-04-25 07:23 -27.62198 152.70366 89 ft 5 kts 86°
2026-04-25 07:23 -27.62198 152.70377 89 ft 0 kts 86°
2026-04-25 07:24 -27.62196 152.70424 89 ft 20 kts 89°
2026-04-25 07:24 -27.62196 152.70524 94 ft 4 kts 109°
2026-04-25 07:24 -27.62215 152.70544 92 ft 5 kts 154°
2026-04-25 07:25 -27.62266 152.70567 91 ft 2 kts 158°
2026-04-25 07:25 -27.62298 152.70582 90 ft 26 kts 158°
2026-04-25 07:25 -27.62667 152.70748 91 ft 82 kts 159°
2026-04-25 07:25 -27.63348 152.71037 108 ft 123 kts 155°
2026-04-25 07:26 -27.64234 152.71411 229 ft 147 kts 156°
2026-04-25 07:26 -27.65228 152.71808 520 ft 154 kts 161°
2026-04-25 07:26 -27.66256 152.72218 883 ft 160 kts 155°
2026-04-25 07:26 -27.67293 152.72724 1282 ft 160 kts 154°
2026-04-25 07:27 -27.68308 152.73212 1767 ft 159 kts 165°
2026-04-25 07:27 -27.69396 152.73334 2193 ft 165 kts 188°
2026-04-25 07:27 -27.70313 152.72442 2352 ft 198 kts 242°
2026-04-25 07:27 -27.70932 152.71006 2519 ft 209 kts 233°
2026-04-25 07:28 -27.71612 152.69508 2706 ft 223 kts 245°
2026-04-25 07:28 -27.72055 152.67780 2833 ft 235 kts 251°
2026-04-25 07:28 -27.72460 152.65966 2942 ft 243 kts 252°
2026-04-25 07:28 -27.72876 152.64090 3049 ft 249 kts 252°
2026-04-25 07:29 -27.73305 152.62177 3168 ft 254 kts 251°
2026-04-25 07:29 -27.73928 152.60318 3271 ft 254 kts 238°
2026-04-25 07:29 -27.74775 152.58563 3367 ft 256 kts 237°
2026-04-25 07:29 -27.75222 152.56627 3467 ft 267 kts 268°
2026-04-25 07:30 -27.74949 152.54541 3574 ft 271 kts 279°
2026-04-25 07:30 -27.74547 152.52465 3672 ft 272 kts 281°
2026-04-25 07:30 -27.74151 152.50370 3778 ft 273 kts 280°
2026-04-25 07:30 -27.73758 152.48268 3866 ft 274 kts 280°
2026-04-25 07:31 -27.73361 152.46157 3972 ft 275 kts 280°
2026-04-25 07:31 -27.72880 152.44063 4078 ft 277 kts 287°
2026-04-25 07:31 -27.72272 152.42689 4144 ft 278 kts 308°
2026-04-25 07:31 -27.72062 152.42402 4164 ft 275 kts 313°
2026-04-25 07:32 -27.70533 152.41319 4220 ft 250 kts 349°
2026-04-25 07:32 -27.68916 152.41315 4231 ft 229 kts 16°
2026-04-25 07:32 -27.67393 152.41707 4222 ft 221 kts 20°
2026-04-25 07:32 -27.65922 152.42119 4206 ft 216 kts 19°
2026-04-25 07:33 -27.64431 152.42339 4228 ft 224 kts 356°
2026-04-25 07:33 -27.63630 152.42054 4224 ft 229 kts 333°
2026-04-25 07:33 -27.62620 152.40954 4227 ft 233 kts 300°
2026-04-25 07:34 -27.61997 152.39262 4233 ft 237 kts 285°
2026-04-25 07:34 -27.61525 152.37465 4232 ft 241 kts 284°
2026-04-25 07:34 -27.61092 152.35621 4231 ft 245 kts 282°
2026-04-25 07:34 -27.60681 152.33773 4160 ft 250 kts 282°
2026-04-25 07:35 -27.60262 152.31877 4207 ft 249 kts 282°
2026-04-25 07:35 -27.59838 152.29980 4247 ft 250 kts 282°
2026-04-25 07:35 -27.59409 152.28084 4294 ft 250 kts 282°
2026-04-25 07:35 -27.58979 152.26187 4315 ft 250 kts 282°
2026-04-25 07:36 -27.58548 152.24286 4337 ft 250 kts 282°
2026-04-25 07:36 -27.58124 152.22392 4364 ft 250 kts 281°
2026-04-25 07:36 -27.57758 152.20541 4790 ft 234 kts 279°
2026-04-25 07:36 -27.57424 152.18770 5221 ft 228 kts 279°
2026-04-25 07:37 -27.57092 152.17032 5606 ft 226 kts 279°
2026-04-25 07:37 -27.56767 152.15309 5943 ft 226 kts 279°
2026-04-25 07:37 -27.56442 152.13555 6030 ft 238 kts 279°
2026-04-25 07:37 -27.56096 152.11681 6050 ft 250 kts 279°
2026-04-25 07:38 -27.55793 152.09707 6040 ft 260 kts 273°
2026-04-25 07:38 -27.55628 152.07644 6029 ft 268 kts 271°
2026-04-25 07:38 -27.55486 152.05524 6035 ft 274 kts 271°
2026-04-25 07:38 -27.55345 152.03368 6017 ft 274 kts 271°
2026-04-25 07:39 -27.55337 152.03257 6016 ft 273 kts 271°
2026-04-25 07:39 -27.55229 152.01675 6020 ft 262 kts 271°
2026-04-25 07:39 -27.55091 151.99582 6044 ft 274 kts 271°
2026-04-25 07:39 -27.54957 151.97441 6039 ft 281 kts 271°
2026-04-25 07:40 -27.54823 151.95222 6032 ft 286 kts 270°
2026-04-25 07:40 -27.54653 151.93011 5796 ft 273 kts 272°
2026-04-25 07:40 -27.54568 151.90950 5447 ft 258 kts 260°
2026-04-25 07:40 -27.54750 151.88895 5205 ft 273 kts 263°
2026-04-25 07:41 -27.54882 151.86714 5077 ft 282 kts 263°
2026-04-25 07:41 -27.54883 151.86700 5076 ft 282 kts 263°
2026-04-25 07:41 -27.55015 151.85114 5030 ft 264 kts 255°
2026-04-25 07:41 -27.55766 151.83338 5001 ft 256 kts 223°
2026-04-25 07:42 -27.57249 151.82262 4884 ft 255 kts 192°
2026-04-25 07:42 -27.58960 151.82163 4974 ft 244 kts 163°
2026-04-25 07:42 -27.60462 151.83012 4721 ft 250 kts 135°
2026-04-25 07:42 -27.61436 151.84656 4607 ft 252 kts 118°
2026-04-25 07:43 -27.62232 151.86381 4751 ft 247 kts 118°
2026-04-25 07:43 -27.63015 151.88095 4787 ft 246 kts 114°
2026-04-25 07:43 -27.63269 151.90004 4533 ft 251 kts 86°
2026-04-25 07:43 -27.62591 151.91827 4292 ft 258 kts 57°
2026-04-25 07:44 -27.61300 151.93237 3843 ft 266 kts 45°
2026-04-25 07:44 -27.59749 151.94466 3187 ft 281 kts 30°
2026-04-25 07:44 -27.57916 151.95212 2846 ft 280 kts 14°
2026-04-25 07:44 -27.56025 151.95566 2694 ft 270 kts 13°
2026-04-25 07:45 -27.54227 151.95852 3173 ft 252 kts
2026-04-25 07:45 -27.52531 151.95274 3189 ft 268 kts 322°
2026-04-25 07:45 -27.51499 151.93629 3084 ft 248 kts 295°
2026-04-25 07:45 -27.50802 151.91943 2880 ft 227 kts 289°
2026-04-25 07:46 -27.50689 151.90278 2795 ft 207 kts 250°
2026-04-25 07:46 -27.51409 151.89088 3023 ft 168 kts 205°
2026-04-25 07:46 -27.52475 151.88893 2982 ft 155 kts 160°
2026-04-25 07:46 -27.53267 151.89604 2680 ft 144 kts 121°
2026-04-25 07:47 -27.53738 151.90580 2419 ft 140 kts 118°
2026-04-25 07:47 -27.54180 151.91517 2263 ft 131 kts 116°
2026-04-25 07:47 -27.54592 151.92472 2423 ft 140 kts 118°
2026-04-25 07:47 -27.55066 151.93403 2900 ft 138 kts 119°
2026-04-25 07:48 -27.55543 151.94466 3000 ft 160 kts 103°
2026-04-25 07:48 -27.55209 151.95649 3322 ft 179 kts 49°
2026-04-25 07:48 -27.53918 151.96088 3128 ft 219 kts 357°
2026-04-25 07:48 -27.52557 151.95237 3199 ft 238 kts 310°
2026-04-25 07:49 -27.51741 151.93592 3336 ft 244 kts 286°
2026-04-25 07:49 -27.51524 151.91725 3712 ft 237 kts 269°
2026-04-25 07:49 -27.51436 151.89818 3785 ft 249 kts 275°
2026-04-25 07:49 -27.51049 151.87917 3835 ft 247 kts 284°
2026-04-25 07:50 -27.50588 151.86081 3551 ft 239 kts 285°
2026-04-25 07:50 -27.50098 151.84331 3236 ft 230 kts 292°
2026-04-25 07:50 -27.49416 151.82782 3069 ft 217 kts 300°
2026-04-25 07:50 -27.48584 151.81423 2946 ft 214 kts 319°
2026-04-25 07:51 -27.47350 151.80471 2801 ft 217 kts 331°
2026-04-25 07:51 -27.46046 151.79610 2723 ft 218 kts 330°
2026-04-25 07:51 -27.44765 151.78675 2567 ft 220 kts 331°
2026-04-25 07:51 -27.44731 151.78651 2571 ft 220 kts 331°
2026-04-25 07:52 -27.43814 151.78018 2532 ft 212 kts 328°
2026-04-25 07:52 -27.43013 151.77415 2437 ft 207 kts 328°
2026-04-25 07:52 -27.41865 151.76542 2293 ft 193 kts 326°
2026-04-25 07:52 -27.40818 151.75704 2215 ft 181 kts 325°
2026-04-25 07:53 -27.39561 151.74639 2016 ft 157 kts 324°
2026-04-25 07:53 -27.38674 151.73982 1997 ft 154 kts 330°
2026-04-25 07:53 -27.37728 151.73370 2060 ft 156 kts 328°
2026-04-25 07:53 -27.37216 151.72795 2113 ft 164 kts 301°
2026-04-25 07:54 -27.37272 151.71189 2271 ft 153 kts 224°
2026-04-25 07:54 -27.38180 151.70915 2217 ft 137 kts 147°
2026-04-25 07:54 -27.38599 151.71869 2146 ft 145 kts 106°
2026-04-25 07:54 -27.39071 151.72750 1790 ft 128 kts 142°
2026-04-25 07:55 -27.39560 151.73148 1634 ft 132 kts 146°
2026-04-25 07:55 -27.40488 151.73888 1342 ft 113 kts 145°
2026-04-25 07:55 -27.40889 151.74201 1337 ft 102 kts 145°
2026-04-25 07:55 -27.41799 151.74912 1520 ft 129 kts 143°
2026-04-25 07:56 -27.42546 151.75509 1862 ft 135 kts 143°
2026-04-25 07:56 -27.43058 151.75923 2085 ft 138 kts 142°
2026-04-25 07:56 -27.43644 151.76780 2261 ft 150 kts 100°
2026-04-25 07:56 -27.43345 151.77957 2287 ft 180 kts 47°
2026-04-25 07:57 -27.42067 151.78323 2215 ft 215 kts 347°
2026-04-25 07:57 -27.40849 151.77447 2343 ft 226 kts 323°
2026-04-25 07:57 -27.40672 151.77294 2366 ft 227 kts 323°
2026-04-25 07:57 -27.39400 151.76159 2436 ft 239 kts 324°
2026-04-25 07:58 -27.38062 151.74994 2572 ft 247 kts 326°
2026-04-25 07:58 -27.36669 151.73819 2475 ft 260 kts 324°
2026-04-25 07:58 -27.35621 151.72361 2427 ft 230 kts 283°
2026-04-25 07:58 -27.35764 151.70746 2327 ft 193 kts 235°
2026-04-25 07:59 -27.36681 151.69973 2209 ft 154 kts 172°
2026-04-25 07:59 -27.37418 151.70617 2095 ft 147 kts 110°
2026-04-25 07:59 -27.37823 151.71663 1992 ft 144 kts 129°
2026-04-25 07:59 -27.38583 151.72395 1793 ft 143 kts 144°
2026-04-25 08:00 -27.39366 151.72997 1558 ft 135 kts 145°
2026-04-25 08:00 -27.40144 151.73617 1411 ft 141 kts 145°
2026-04-25 08:00 -27.40902 151.74213 1337 ft 112 kts 144°
2026-04-25 08:00 -27.41599 151.74730 1485 ft 127 kts 147°
2026-04-25 08:01 -27.42386 151.75286 1744 ft 139 kts 148°
2026-04-25 08:01 -27.43243 151.75848 2049 ft 147 kts 143°
2026-04-25 08:01 -27.43916 151.76725 2309 ft 156 kts 107°
2026-04-25 08:01 -27.43826 151.77949 2604 ft 174 kts 65°
2026-04-25 08:02 -27.42809 151.78892 2604 ft 208 kts 26°
2026-04-25 08:02 -27.41299 151.79087 2635 ft 229 kts 356°
2026-04-25 08:02 -27.39777 151.78483 2755 ft 247 kts 326°
2026-04-25 08:02 -27.38401 151.77236 2635 ft 260 kts 324°
2026-04-25 08:03 -27.36961 151.75969 2635 ft 264 kts 324°
2026-04-25 08:03 -27.35520 151.74713 2718 ft 266 kts 324°
2026-04-25 08:03 -27.34437 151.73292 2993 ft 220 kts 292°
2026-04-25 08:03 -27.34233 151.71702 2747 ft 194 kts 256°
2026-04-25 08:04 -27.34777 151.70495 2527 ft 159 kts 214°
2026-04-25 08:04 -27.35723 151.70177 2376 ft 138 kts 159°
2026-04-25 08:04 -27.36540 151.70765 2165 ft 145 kts 140°
2026-04-25 08:04 -27.37361 151.71433 2036 ft 143 kts 142°
2026-04-25 08:05 -27.38146 151.72038 1903 ft 132 kts 144°
2026-04-25 08:05 -27.38876 151.72610 1715 ft 128 kts 143°
2026-04-25 08:05 -27.39605 151.73191 1520 ft 131 kts 144°
2026-04-25 08:05 -27.40369 151.73794 1367 ft 134 kts 144°
2026-04-25 08:06 -27.41074 151.74343 1337 ft 119 kts 146°
2026-04-25 08:06 -27.41834 151.74898 1461 ft 139 kts 149°
2026-04-25 08:06 -27.42604 151.75504 1896 ft 134 kts 141°
2026-04-25 08:06 -27.43330 151.76218 2120 ft 148 kts 122°
2026-04-25 08:07 -27.43667 151.77362 2334 ft 160 kts 92°
2026-04-25 08:07 -27.43350 151.78633 2447 ft 188 kts 56°
2026-04-25 08:07 -27.42135 151.79336 2484 ft 218 kts
2026-04-25 08:07 -27.40569 151.79351 2538 ft 236 kts 357°
2026-04-25 08:08 -27.38992 151.78642 2515 ft 256 kts 326°
2026-04-25 08:08 -27.37583 151.77400 2619 ft 260 kts 323°
2026-04-25 08:08 -27.36139 151.76102 2532 ft 266 kts 323°
2026-04-25 08:08 -27.34809 151.74792 2383 ft 248 kts 310°
2026-04-25 08:09 -27.34146 151.73113 2296 ft 232 kts 271°
2026-04-25 08:09 -27.34438 151.71449 2470 ft 204 kts 238°
2026-04-25 08:09 -27.35437 151.70506 2388 ft 178 kts 187°
2026-04-25 08:09 -27.36483 151.70761 2115 ft 145 kts 144°
2026-04-25 08:10 -27.37265 151.71353 1883 ft 127 kts 141°
2026-04-25 08:10 -27.37961 151.71920 1719 ft 126 kts 143°
2026-04-25 08:10 -27.38706 151.72503 1672 ft 135 kts 143°
2026-04-25 08:10 -27.39476 151.73098 1511 ft 131 kts 144°
2026-04-25 08:11 -27.40200 151.73658 1366 ft 121 kts 144°
2026-04-25 08:11 -27.40835 151.74159 1337 ft 102 kts 146°
2026-04-25 08:11 -27.41514 151.74683 1409 ft 132 kts 144°
2026-04-25 08:11 -27.42265 151.75246 1867 ft 124 kts 143°
2026-04-25 08:12 -27.42986 151.75792 2230 ft 127 kts 134°
2026-04-25 08:12 -27.43388 151.76647 2612 ft 128 kts 101°
2026-04-25 08:12 -27.43191 151.77791 2510 ft 173 kts 66°
2026-04-25 08:12 -27.42291 151.78816 2655 ft 196 kts 34°
2026-04-25 08:13 -27.40879 151.79140 2538 ft 228 kts 358°
2026-04-25 08:13 -27.39343 151.78526 2580 ft 246 kts 328°
2026-04-25 08:13 -27.37952 151.77327 2527 ft 258 kts 323°
2026-04-25 08:14 -27.35197 151.74765 2587 ft 247 kts 303°
2026-04-25 08:14 -27.34725 151.73045 2442 ft 218 kts 267°
2026-04-25 08:14 -27.35041 151.71559 2475 ft 178 kts 238°
2026-04-25 08:14 -27.35833 151.70708 2242 ft 143 kts 189°
2026-04-25 08:15 -27.36694 151.70932 2011 ft 136 kts 146°
2026-04-25 08:15 -27.37511 151.71543 1847 ft 148 kts 144°
2026-04-25 08:15 -27.38346 151.72225 1709 ft 144 kts 143°
2026-04-25 08:15 -27.39133 151.72820 1599 ft 129 kts 143°
2026-04-25 08:16 -27.39877 151.73404 1460 ft 134 kts 143°
2026-04-25 08:16 -27.40615 151.73986 1336 ft 120 kts 144°
2026-04-25 08:16 -27.41270 151.74494 1336 ft 124 kts 145°
2026-04-25 08:16 -27.42052 151.75094 1424 ft 149 kts 145°
2026-04-25 08:17 -27.42914 151.75743 1920 ft 144 kts 145°
2026-04-25 08:17 -27.43655 151.76514 2271 ft 151 kts 121°
2026-04-25 08:17 -27.43970 151.77695 2469 ft 168 kts 91°
2026-04-25 08:17 -27.43569 151.78968 2638 ft 193 kts 53°
2026-04-25 08:18 -27.42307 151.79669 2706 ft 222 kts
2026-04-25 08:18 -27.40719 151.79255 2613 ft 247 kts 342°
2026-04-25 08:18 -27.39196 151.78240 2484 ft 265 kts 323°
2026-04-25 08:18 -27.37823 151.77001 2507 ft 242 kts 323°
2026-04-25 08:19 -27.36550 151.75833 2373 ft 229 kts 322°
2026-04-25 08:19 -27.35505 151.74566 2345 ft 212 kts 297°
2026-04-25 08:19 -27.35282 151.73057 2352 ft 188 kts 256°
2026-04-25 08:19 -27.35823 151.71820 2348 ft 169 kts 220°
2026-04-25 08:20 -27.36817 151.71255 2316 ft 160 kts 173°
2026-04-25 08:20 -27.37760 151.71729 1998 ft 146 kts 140°
2026-04-25 08:20 -27.38544 151.72356 1731 ft 131 kts 142°
2026-04-25 08:20 -27.39299 151.72946 1517 ft 133 kts 143°
2026-04-25 08:21 -27.40021 151.73514 1385 ft 122 kts 143°
2026-04-25 08:21 -27.40662 151.74018 1336 ft 105 kts 145°
2026-04-25 08:21 -27.41361 151.74559 1380 ft 136 kts 144°
2026-04-25 08:21 -27.42152 151.75134 1721 ft 142 kts 146°
2026-04-25 08:22 -27.43015 151.75765 2005 ft 154 kts 143°
2026-04-25 08:22 -27.43753 151.76649 2331 ft 160 kts 119°
2026-04-25 08:22 -27.44113 151.77875 2499 ft 178 kts 92°
2026-04-25 08:22 -27.43638 151.79233 2593 ft 202 kts 53°
2026-04-25 08:23 -27.42353 151.80040 2658 ft 227 kts 14°
2026-04-25 08:23 -27.40766 151.79758 2620 ft 251 kts 333°
2026-04-25 08:23 -27.39340 151.78560 2666 ft 260 kts 323°
2026-04-25 08:23 -27.38013 151.77308 2606 ft 233 kts 321°
2026-04-25 08:24 -27.36877 151.76150 2524 ft 208 kts 312°
2026-04-25 08:24 -27.36302 151.74790 2365 ft 181 kts 276°
2026-04-25 08:24 -27.36482 151.73501 2248 ft 159 kts 240°
2026-04-25 08:24 -27.37068 151.72506 2100 ft 151 kts 216°
2026-04-25 08:25 -27.37975 151.72133 1903 ft 135 kts 168°
2026-04-25 08:25 -27.38801 151.72554 1649 ft 136 kts 143°
2026-04-25 08:25 -27.39558 151.73152 1463 ft 127 kts 143°
2026-04-25 08:25 -27.40260 151.73704 1364 ft 115 kts 143°
2026-04-25 08:26 -27.40879 151.74189 1340 ft 116 kts 145°
2026-04-25 08:26 -27.41651 151.74788 1367 ft 153 kts 144°
2026-04-25 08:26 -27.42556 151.75468 1726 ft 158 kts 140°
2026-04-25 08:26 -27.43177 151.76503 2083 ft 170 kts 108°
2026-04-25 08:27 -27.43118 151.77866 2365 ft 186 kts 69°
2026-04-25 08:27 -27.42183 151.78971 2463 ft 212 kts 34°
2026-04-25 08:27 -27.40682 151.79312 2515 ft 235 kts 356°
2026-04-25 08:27 -27.39184 151.78555 2498 ft 240 kts 326°
2026-04-25 08:28 -27.37903 151.77449 2534 ft 228 kts 323°
2026-04-25 08:28 -27.36714 151.76378 2491 ft 207 kts 324°
2026-04-25 08:28 -27.35667 151.75427 2430 ft 180 kts 323°
2026-04-25 08:28 -27.34778 151.74590 2358 ft 155 kts 322°
2026-04-25 08:29 -27.33947 151.73832 2299 ft 155 kts 323°
2026-04-25 08:29 -27.33130 151.73064 2324 ft 150 kts 323°
2026-04-25 08:29 -27.32349 151.72348 2373 ft 142 kts 324°
2026-04-25 08:29 -27.31597 151.71645 2460 ft 143 kts 323°
2026-04-25 08:30 -27.30789 151.70929 2479 ft 157 kts 323°
2026-04-25 08:30 -27.29893 151.70126 2500 ft 173 kts 323°
2026-04-25 08:30 -27.28939 151.69268 2570 ft 182 kts 323°
2026-04-25 08:30 -27.27983 151.68317 2626 ft 188 kts 306°
2026-04-25 08:31 -27.27725 151.66865 2678 ft 202 kts 251°
2026-04-25 08:31 -27.28579 151.65701 2749 ft 193 kts 198°
2026-04-25 08:31 -27.29803 151.65706 2931 ft 174 kts 145°
2026-04-25 08:31 -27.30859 151.66435 2922 ft 182 kts 147°
2026-04-25 08:32 -27.31955 151.67183 2792 ft 185 kts 144°
2026-04-25 08:32 -27.33004 151.67976 2761 ft 171 kts 142°
2026-04-25 08:32 -27.33892 151.68678 2677 ft 146 kts 141°
2026-04-25 08:32 -27.34671 151.69293 2503 ft 135 kts 142°
2026-04-25 08:33 -27.35450 151.69907 2397 ft 139 kts 142°
2026-04-25 08:33 -27.36252 151.70554 2249 ft 144 kts 142°
2026-04-25 08:33 -27.37055 151.71191 2088 ft 140 kts 143°
2026-04-25 08:33 -27.37851 151.71809 1899 ft 138 kts 142°
2026-04-25 08:34 -27.38621 151.72424 1734 ft 135 kts 143°
2026-04-25 08:34 -27.39389 151.73016 1560 ft 131 kts 143°
2026-04-25 08:34 -27.40110 151.73584 1383 ft 121 kts 143°
2026-04-25 08:34 -27.40741 151.74083 1336 ft 99 kts 144°
2026-04-25 08:35 -27.41400 151.74591 1351 ft 134 kts 144°
2026-04-25 08:35 -27.42233 151.75221 1617 ft 148 kts 144°
2026-04-25 08:35 -27.43097 151.75835 2073 ft 148 kts 147°
2026-04-25 08:35 -27.44035 151.76393 2378 ft 165 kts 160°
2026-04-25 08:36 -27.45232 151.76659 2530 ft 185 kts 167°
2026-04-25 08:36 -27.46577 151.76928 2551 ft 206 kts 166°
2026-04-25 08:36 -27.48038 151.77250 2571 ft 221 kts 165°
2026-04-25 08:36 -27.49568 151.77647 2586 ft 231 kts 163°
2026-04-25 08:37 -27.51163 151.78066 2589 ft 240 kts 168°
2026-04-25 08:37 -27.52850 151.78201 2559 ft 247 kts 173°
2026-04-25 08:37 -27.54570 151.78331 2604 ft 249 kts 173°
2026-04-25 08:37 -27.56268 151.78469 2574 ft 246 kts 172°
2026-04-25 08:38 -27.57967 151.78645 2445 ft 245 kts 172°
2026-04-25 08:38 -27.59639 151.78846 2425 ft 238 kts 166°
2026-04-25 08:38 -27.61136 151.79592 2260 ft 236 kts 147°
2026-04-25 08:38 -27.62388 151.80701 2433 ft 223 kts 132°
2026-04-25 08:39 -27.63319 151.82086 2449 ft 220 kts 129°
2026-04-25 08:39 -27.64280 151.83416 2468 ft 218 kts 127°
2026-04-25 08:39 -27.65202 151.84749 2653 ft 209 kts 126°
2026-04-25 08:39 -27.66029 151.86034 2988 ft 196 kts 124°
2026-04-25 08:40 -27.66806 151.87268 3306 ft 197 kts 127°
2026-04-25 08:40 -27.67671 151.88491 3550 ft 201 kts 128°
2026-04-25 08:40 -27.68617 151.89761 3461 ft 219 kts 130°
2026-04-25 08:40 -27.69652 151.91066 3592 ft 217 kts 131°
2026-04-25 08:41 -27.70591 151.92234 4459 ft 194 kts 131°
2026-04-25 08:41 -27.71501 151.93339 4945 ft 190 kts 133°
2026-04-25 08:41 -27.72421 151.94393 5354 ft 189 kts 134°
2026-04-25 08:41 -27.73235 151.95607 5455 ft 199 kts 117°
2026-04-25 08:42 -27.73749 151.97042 5913 ft 193 kts 115°
2026-04-25 08:42 -27.74164 151.98587 5716 ft 218 kts 103°
2026-04-25 08:42 -27.74467 152.00299 5573 ft 233 kts 103°
2026-04-25 08:42 -27.74786 152.02111 5684 ft 236 kts 103°
2026-04-25 08:43 -27.75060 152.03931 5853 ft 234 kts 101°
2026-04-25 08:43 -27.75296 152.05783 5840 ft 242 kts 100°
2026-04-25 08:43 -27.75516 152.07668 5862 ft 245 kts 99°
2026-04-25 08:43 -27.75723 152.09615 5582 ft 253 kts 100°
2026-04-25 08:44 -27.75956 152.11544 5559 ft 246 kts 99°
2026-04-25 08:44 -27.76142 152.13468 5630 ft 245 kts 98°
2026-04-25 08:44 -27.76268 152.15305 5945 ft 237 kts 95°
2026-04-25 08:44 -27.76094 152.17211 5785 ft 252 kts 82°
2026-04-25 08:45 -27.75769 152.19104 6175 ft 240 kts 82°
2026-04-25 08:45 -27.75363 152.20943 6322 ft 242 kts 80°
2026-04-25 08:45 -27.74956 152.22769 6573 ft 237 kts 82°
2026-04-25 08:45 -27.74545 152.24607 6350 ft 252 kts 78°
2026-04-25 08:46 -27.74031 152.26502 6366 ft 252 kts 77°
2026-04-25 08:46 -27.73519 152.28398 6411 ft 252 kts 76°
2026-04-25 08:46 -27.72957 152.30241 6620 ft 247 kts 75°
2026-04-25 08:46 -27.72335 152.32074 6369 ft 259 kts 72°
2026-04-25 08:47 -27.71682 152.33959 6353 ft 257 kts 74°
2026-04-25 08:47 -27.71059 152.35863 6310 ft 259 kts 73°
2026-04-25 08:47 -27.70445 152.37771 6218 ft 259 kts 76°
2026-04-25 08:47 -27.69964 152.39708 6137 ft 255 kts 78°
2026-04-25 08:48 -27.69462 152.41638 6031 ft 259 kts 77°
2026-04-25 08:48 -27.68978 152.43585 5620 ft 256 kts 79°
2026-04-25 08:48 -27.68460 152.45478 5274 ft 249 kts 76°
2026-04-25 08:48 -27.67910 152.47281 5155 ft 245 kts 75°
2026-04-25 08:49 -27.67349 152.49087 4971 ft 242 kts 75°
2026-04-25 08:49 -27.66779 152.50840 4973 ft 234 kts 72°
2026-04-25 08:49 -27.66117 152.52448 5195 ft 222 kts 70°
2026-04-25 08:49 -27.65406 152.54032 4789 ft 237 kts 69°
2026-04-25 08:50 -27.64655 152.55731 4434 ft 245 kts 69°
2026-04-25 08:50 -27.63888 152.57471 4175 ft 247 kts 70°
2026-04-25 08:50 -27.63112 152.59109 4432 ft 223 kts 66°
2026-04-25 08:50 -27.62346 152.60573 4229 ft 209 kts 65°
2026-04-25 08:51 -27.61608 152.61903 3873 ft 198 kts 63°
2026-04-25 08:51 -27.60823 152.63102 3481 ft 183 kts 59°
2026-04-25 08:51 -27.60058 152.64132 3150 ft 161 kts 58°
2026-04-25 08:51 -27.59372 152.65062 2758 ft 149 kts 60°
2026-04-25 08:52 -27.58760 152.65952 2421 ft 136 kts 69°
2026-04-25 08:52 -27.58530 152.66910 2139 ft 125 kts 96°
2026-04-25 08:52 -27.58698 152.67851 1864 ft 122 kts 115°
2026-04-25 08:52 -27.59116 152.68687 1564 ft 120 kts 129°
2026-04-25 08:53 -27.59715 152.69321 1162 ft 120 kts 143°
2026-04-25 08:53 -27.60449 152.69776 761 ft 123 kts 156°
2026-04-25 08:53 -27.61237 152.70121 452 ft 118 kts 159°
2026-04-25 08:53 -27.61990 152.70449 164 ft 115 kts 161°
2026-04-25 08:54 -27.62681 152.70744 93 ft 96 kts 162°
2026-04-25 08:54 -27.63189 152.70973 91 ft 58 kts 158°
2026-04-25 08:54 -27.63443 152.71085 94 ft 28 kts 162°
2026-04-25 08:54 -27.63639 152.71162 95 ft 30 kts 159°
2026-04-25 08:55 -27.63871 152.71257 98 ft 44 kts 160°
2026-04-25 08:55 -27.64103 152.71339 98 ft 15 kts 209°
2026-04-25 08:55 -27.64152 152.71271 98 ft 11 kts 235°
2026-04-25 08:55 -27.64165 152.71185 98 ft 6 kts 303°
2026-04-25 08:56 -27.64080 152.71142 98 ft 25 kts 340°
2026-04-25 08:56 -27.63904 152.71071 96 ft 22 kts 334°
2026-04-25 08:56 -27.63767 152.71001 95 ft 21 kts 318°
2026-04-25 08:56 -27.63683 152.70958 96 ft 27 kts 343°
2026-04-25 08:57 -27.63595 152.70891 95 ft 11 kts 281°
2026-04-25 08:57 -27.63597 152.70821 94 ft 0 kts 264°
2026-04-25 08:57 -27.63597 152.70813 94 ft 9 kts 264°
2026-04-25 08:57 -27.63635 152.70656 96 ft 14 kts 244°
2026-04-25 08:58 -27.63667 152.70644 96 ft 3 kts 164°
2026-04-25 08:58 -27.63669 152.70644 96 ft 0 kts 165°